This demonstration page uses our WeatherBlox Daily Observations layout. Learn more.

Left ArrowRight Arrow

Hourly Observations for April 8, 2016

Temp ( °F °C ) Dew Point ( °F °C ) Humidity (%) Winds ( mph kmh ) Pressure ( in mb ) Visibility ( mi km ) Precip ( " mm )
12:53 am 00:53 Clear 61 16.1 51 10.6 70 70 SSE 5 7 29.86 1011 10 16 0.00 0.00
1:53 am 01:53 Clear 61 16.1 50 10 67 67 Calm 29.86 1011 10 16 0.00 0.00
2:53 am 02:53 Clear 57 13.9 50 10 78 78 Calm 29.87 1011 10 16 0.00 0.00
3:53 am 03:53 Clear 56 13.3 50 10 81 81 Calm 29.87 1011 10 16 0.00 0.00
4:53 am 04:53 Clear 54 12.2 49 9.4 83 83 NE 3 6 29.88 1012 10 16 0.00 0.00
5:53 am 05:53 Clear 54 12.2 49 9.4 83 83 Calm 29.88 1012 10 16 0.00 0.00
6:53 am 06:53 Sunny 53 11.7 48 8.9 83 83 Calm 29.89 1012 10 16 0.00 0.00
7:53 am 07:53 Sunny 57 13.9 50 10 78 78 Calm 29.88 1012 10 16 0.00 0.00
8:53 am 08:53 Sunny 61 16.1 51 10.6 70 70 N 3 6 29.88 1012 10 16 0.00 0.00
9:53 am 09:53 Sunny 67 19.4 49 9.4 53 53 VRB 3 6 29.87 1011 10 16 0.00 0.00
10:53 am 10:53 Sunny 70 21.1 47 8.3 44 44 Calm 29.85 1011 10 16 0.00 0.00
11:53 am 11:53 Sunny 74 23.3 46 7.8 37 37 VRB 5 7 29.83 1010 10 16 0.00 0.00
12:53 pm 12:53 Sunny 77 25 45 7.2 32 32 W 5 7 29.81 1010 10 16 0.00 0.00
1:53 pm 13:53 Sunny 78 25.6 45 7.2 31 31 W 3 6 29.79 1009 10 16 0.00 0.00
2:53 pm 14:53 Sunny 79 26.1 46 7.8 31 31 SSW 5 7 29.76 1008 10 16 0.00 0.00
3:53 pm 15:53 Sunny 80 26.7 49 9.4 34 34 ESE 8 13 29.74 1007 10 16 0.00 0.00
4:53 pm 16:53 Sunny 78 25.6 50 10 37 37 SE 8 13 29.73 1007 10 16 0.00 0.00
5:53 pm 17:53 Sunny 77 25 52 11.1 42 42 SE 6 9 29.72 1007 10 16 0.00 0.00
6:53 pm 18:53 Sunny 75 23.9 53 11.7 46 46 S 8 13 29.74 1007 10 16 0.00 0.00
7:53 pm 19:53 Clear 73 22.8 53 11.7 50 50 S 9 15 29.75 1007 10 16 0.00 0.00
8:53 pm 20:53 Clear 73 22.8 50 10 44 44 SSW 6 9 29.78 1009 10 16 0.00 0.00
9:53 pm 21:53 Clear 69 20.6 54 12.2 59 59 S 3 6 29.80 1009 10 16 0.00 0.00
10:53 pm 22:53 Mostly Clear 70 21.1 51 10.6 51 51 WSW 5 7 29.78 1009 10 16 0.00 0.00
11:53 pm 23:53 Clear 68 20 53 11.7 59 59 SE 6 9 29.81 1010 10 16 0.00 0.00

Powered by AerisWeather